• In Germany
  • List of Countries
  • For 7 days
  • Water Temperature
  • Satellite Maps
  • Weather Map
  • Weather Widgets
  • user-avatar
    Login

    Hourly Weather Manama

    Today, 16 August, Wednesday

    Time Temperature Precipitation Wind Pressure Humidity
    00:00 +38°C° 0 mm 3 mps 750 mmHg 57%
    01:00 +38°C° 0 mm 3 mps 750 mmHg 57%
    02:00 +38°C° 0 mm 3 mps 750 mmHg 58%
    03:00 +37°C° 0 mm 4 mps 750 mmHg 59%
    04:00 +37°C° 0 mm 3 mps 750 mmHg 60%
    05:00 +37°C° 0 mm 3 mps 750 mmHg 61%
    06:00 +37°C° 0 mm 2 mps 751 mmHg 61%
    07:00 +38°C° 0 mm 2 mps 751 mmHg 58%
    08:00 +39°C° 0 mm 2 mps 751 mmHg 54%
    09:00 +40°C° 0 mm 3 mps 751 mmHg 51%
    10:00 +42°C° 0 mm 3 mps 751 mmHg 47%
    11:00 +42°C° 0 mm 2 mps 751 mmHg 43%
    12:00 +43°C° 0 mm 2 mps 751 mmHg 40%
    13:00 +44°C° 0 mm 3 mps 751 mmHg 39%
    14:00 +44°C° 0 mm 3 mps 750 mmHg 37%
    15:00 +45°C° 0 mm 4 mps 750 mmHg 36%
    16:00 +44°C° 0 mm 4 mps 750 mmHg 41%
    17:00 +42°C° 0 mm 4 mps 750 mmHg 46%
    18:00 +41°C° 0 mm 4 mps 750 mmHg 50%
    19:00 +41°C° 0 mm 4 mps 750 mmHg 51%
    20:00 +40°C° 0 mm 4 mps 750 mmHg 53%
    21:00 +39°C° 0 mm 3 mps 750 mmHg 54%
    22:00 +39°C° 0 mm 3 mps 750 mmHg 54%
    23:00 +38°C° 0 mm 3 mps 750 mmHg 55%

    Tomorrow, 17 August, Thursday

    Time Temperature Precipitation Wind Pressure Humidity
    00:00 +38°C° 0 mm 3 mps 750 mmHg 55%
    01:00 +38°C° 0 mm 3 mps 750 mmHg 56%
    02:00 +37°C° 0 mm 3 mps 750 mmHg 57%
    03:00 +37°C° 0 mm 4 mps 750 mmHg 59%
    04:00 +37°C° 0 mm 3 mps 750 mmHg 60%
    05:00 +37°C° 0 mm 3 mps 750 mmHg 61%
    06:00 +37°C° 0 mm 3 mps 751 mmHg 62%
    07:00 +38°C° 0 mm 3 mps 751 mmHg 56%
    08:00 +39°C° 0 mm 2 mps 751 mmHg 51%
    09:00 +40°C° 0 mm 2 mps 751 mmHg 46%
    10:00 +41°C° 0 mm 2 mps 751 mmHg 41%
    11:00 +42°C° 0 mm 2 mps 751 mmHg 37%
    12:00 +45°C° 0 mm 2 mps 751 mmHg 33%
    13:00 +45°C° 0 mm 3 mps 750 mmHg 34%
    14:00 +45°C° 0 mm 4 mps 750 mmHg 34%
    15:00 +46°C° 0 mm 6 mps 749 mmHg 35%
    16:00 +43°C° 0 mm 5 mps 749 mmHg 40%
    17:00 +42°C° 0 mm 5 mps 749 mmHg 45%
    18:00 +41°C° 0 mm 5 mps 749 mmHg 50%
    19:00 +41°C° 0 mm 4 mps 749 mmHg 54%
    20:00 +40°C° 0 mm 4 mps 750 mmHg 57%
    21:00 +40°C° 0 mm 4 mps 750 mmHg 60%
    22:00 +38°C° 0 mm 3 mps 750 mmHg 61%
    23:00 +38°C° 0 mm 3 mps 750 mmHg 63%

    Day after tomorrow, 18 August, Friday

    Time Temperature Precipitation Wind Pressure Humidity
    00:00 +38°C° 0 mm 3 mps 750 mmHg 64%
    01:00 +37°C° 0 mm 2 mps 749 mmHg 64%
    02:00 +37°C° 0 mm 2 mps 749 mmHg 64%
    03:00 +36°C° 0 mm 1 mps 749 mmHg 64%
    04:00 +36°C° 0 mm 1 mps 750 mmHg 63%
    05:00 +36°C° 0 mm 1 mps 750 mmHg 61%
    06:00 +37°C° 0 mm 2 mps 751 mmHg 60%
    07:00 +38°C° 0 mm 2 mps 751 mmHg 55%
    08:00 +39°C° 0 mm 2 mps 751 mmHg 50%
    09:00 +40°C° 0 mm 2 mps 751 mmHg 45%
    10:00 +41°C° 0 mm 2 mps 751 mmHg 40%
    11:00 +42°C° 0 mm 2 mps 751 mmHg 36%
    12:00 +43°C° 0 mm 2 mps 751 mmHg 32%
    13:00 +44°C° 0 mm 3 mps 750 mmHg 31%
    14:00 +45°C° 0 mm 3 mps 750 mmHg 29%
    15:00 +45°C° 0 mm 4 mps 749 mmHg 28%
    16:00 +44°C° 0 mm 4 mps 749 mmHg 33%
    17:00 +42°C° 0 mm 4 mps 749 mmHg 38%
    18:00 +41°C° 0 mm 4 mps 749 mmHg 43%
    19:00 +39°C° 0 mm 3 mps 750 mmHg 44%
    20:00 +39°C° 0 mm 2 mps 750 mmHg 46%
    21:00 +37°C° 0 mm 1 mps 750 mmHg 47%
    22:00 +37°C° 0 mm 1 mps 750 mmHg 47%
    23:00 +36°C° 0 mm 1 mps 750 mmHg 47%

    19 August, Saturday

    Time Temperature Precipitation Wind Pressure Humidity
    00:00 +36°C° 0 mm 1 mps 749 mmHg 47%
    01:00 +35°C° 0 mm 1 mps 749 mmHg 47%
    02:00 +33°C° 0 mm 0 mps 749 mmHg 47%
    03:00 +33°C° 0 mm 0 mps 749 mmHg 48%
    04:00 +35°C° 0 mm 1 mps 749 mmHg 46%
    05:00 +37°C° 0 mm 2 mps 749 mmHg 44%
    06:00 +37°C° 0 mm 2 mps 750 mmHg 43%
    07:00 +38°C° 0 mm 2 mps 750 mmHg 39%
    08:00 +40°C° 0 mm 2 mps 750 mmHg 36%
    09:00 +41°C° 0 mm 2 mps 751 mmHg 33%
    10:00 +42°C° 0 mm 2 mps 750 mmHg 30%
    11:00 +43°C° 0 mm 2 mps 750 mmHg 27%
    12:00 +46°C° 0 mm 3 mps 750 mmHg 24%
    13:00 +46°C° 0 mm 3 mps 750 mmHg 24%
    14:00 +46°C° 0 mm 3 mps 749 mmHg 24%
    15:00 +46°C° 0 mm 3 mps 749 mmHg 24%
    16:00 +45°C° 0 mm 3 mps 749 mmHg 26%
    17:00 +44°C° 0 mm 3 mps 749 mmHg 29%
    18:00 +42°C° 0 mm 2 mps 749 mmHg 31%
    19:00 +41°C° 0 mm 2 mps 749 mmHg 32%
    20:00 +41°C° 0 mm 1 mps 749 mmHg 33%
    21:00 +40°C° 0 mm 1 mps 749 mmHg 33%
    22:00 +40°C° 0 mm 2 mps 749 mmHg 33%
    23:00 +40°C° 0 mm 3 mps 749 mmHg 33%

    20 August, Sunday

    Time Temperature Precipitation Wind Pressure Humidity
    00:00 +41°C° 0 mm 4 mps 749 mmHg 32%
    01:00 +40°C° 0 mm 4 mps 748 mmHg 38%
    02:00 +38°C° 0 mm 3 mps 748 mmHg 43%
    03:00 +38°C° 0 mm 3 mps 748 mmHg 48%
    04:00 +38°C° 0 mm 2 mps 749 mmHg 48%
    05:00 +38°C° 0 mm 2 mps 749 mmHg 48%
    06:00 +38°C° 0 mm 2 mps 749 mmHg 48%
    07:00 +39°C° 0 mm 2 mps 750 mmHg 43%
    08:00 +40°C° 0 mm 2 mps 750 mmHg 39%
    09:00 +43°C° 0 mm 3 mps 750 mmHg 34%
    10:00 +43°C° 0 mm 3 mps 750 mmHg 33%
    11:00 +44°C° 0 mm 3 mps 750 mmHg 32%
    12:00 +45°C° 0 mm 4 mps 749 mmHg 31%
    13:00 +45°C° 0 mm 4 mps 749 mmHg 31%
    14:00 +45°C° 0 mm 4 mps 748 mmHg 31%
    15:00 +47°C° 0 mm 5 mps 748 mmHg 30%
    16:00 +45°C° 0 mm 4 mps 748 mmHg 33%
    17:00 +44°C° 0 mm 4 mps 748 mmHg 35%
    18:00 +44°C° 0 mm 4 mps 748 mmHg 37%
    19:00 +43°C° 0 mm 4 mps 749 mmHg 38%
    20:00 +42°C° 0 mm 4 mps 749 mmHg 39%
    21:00 +42°C° 0 mm 4 mps 749 mmHg 40%
    22:00 +41°C° 0 mm 4 mps 749 mmHg 41%
    23:00 +41°C° 0 mm 4 mps 749 mmHg 41%

    21 August, Monday

    Time Temperature Precipitation Wind Pressure Humidity
    00:00 +40°C° 0 mm 5 mps 749 mmHg 42%
    01:00 +40°C° 0 mm 4 mps 749 mmHg 45%
    02:00 +38°C° 0 mm 4 mps 748 mmHg 49%
    03:00 +38°C° 0 mm 4 mps 748 mmHg 53%
    04:00 +38°C° 0 mm 3 mps 749 mmHg 54%
    05:00 +38°C° 0 mm 3 mps 749 mmHg 55%
    06:00 +38°C° 0 mm 3 mps 749 mmHg 55%
    07:00 +39°C° 0 mm 3 mps 750 mmHg 49%
    08:00 +40°C° 0 mm 3 mps 750 mmHg 43%
    09:00 +41°C° 0 mm 2 mps 750 mmHg 37%
    10:00 +42°C° 0 mm 2 mps 750 mmHg 33%
    11:00 +43°C° 0 mm 1 mps 749 mmHg 29%
    12:00 +44°C° 0 mm 1 mps 749 mmHg 26%
    13:00 +46°C° 0 mm 2 mps 749 mmHg 24%
    14:00 +46°C° 0 mm 3 mps 748 mmHg 23%
    15:00 +48°C° 0 mm 4 mps 748 mmHg 22%
    16:00 +47°C° 0 mm 4 mps 748 mmHg 24%
    17:00 +45°C° 0 mm 4 mps 748 mmHg 27%
    18:00 +44°C° 0 mm 4 mps 748 mmHg 29%
    19:00 +43°C° 0 mm 4 mps 748 mmHg 29%
    20:00 +43°C° 0 mm 4 mps 748 mmHg 29%
    21:00 +42°C° 0 mm 4 mps 748 mmHg 30%
    22:00 +42°C° 0 mm 4 mps 748 mmHg 30%
    23:00 +41°C° 0 mm 4 mps 748 mmHg 31%
    Show more